Location: Newark
(42.8481°N, 0.4872°E)
Time: 14:18:08
(UTC+00:00)

Altair - All Passes

Search period start: 31 October 2020 00:00
Search period end: 10 November 2020 00:00
Orbit: 1502 x 1682 km, 47.2° (Epoch: 30 October)

Date Brightness Start Highest point End Pass type
(mag) Time Alt. Az. Time Alt. Az. Time Alt. Az.
31 Oct - 02:36:35 10° S 02:44:13 30° SE 02:51:59 10° ENE visible
31 Oct - 04:38:42 10° WSW 04:47:56 80° SSE 04:57:30 10° ENE visible
31 Oct - 06:43:43 10° W 06:53:04 69° N 07:02:49 10° E daylight
31 Oct - 08:48:56 10° WNW 08:58:33 83° NNE 09:08:31 10° ESE daylight
31 Oct - 10:53:52 10° WNW 11:03:01 48° SW 11:12:27 10° SSE daylight
31 Oct - 13:02:15 10° W 13:06:03 13° WSW 13:09:53 10° SW daylight
01 Nov - 02:11:50 10° S 02:19:11 28° SE 02:26:37 10° ENE visible
01 Nov - 04:13:36 10° SW 04:22:47 77° SSE 04:32:17 10° ENE visible
01 Nov - 06:18:30 10° W 06:27:50 69° N 06:37:32 10° ENE daylight
01 Nov - 08:23:46 10° WNW 08:33:19 80° NNE 08:43:16 10° ESE daylight
01 Nov - 10:28:39 10° WNW 10:37:53 52° SW 10:47:26 10° SSE daylight
01 Nov - 12:36:16 10° W 12:41:01 15° WSW 12:45:51 10° SSW daylight
02 Nov - 01:47:09 10° S 01:54:09 25° SE 02:01:14 10° E visible
02 Nov - 03:48:30 10° SW 03:57:38 73° SSE 04:07:04 10° ENE visible
02 Nov - 05:53:17 10° W 06:02:35 70° N 06:12:16 10° ENE visible
02 Nov - 07:58:35 10° WNW 08:08:06 78° NNE 08:18:00 10° ESE daylight
02 Nov - 10:03:28 10° WNW 10:12:45 55° SW 10:22:22 10° SE daylight
02 Nov - 12:10:30 10° W 12:15:59 17° SW 12:21:34 10° SSW daylight
03 Nov - 01:22:30 10° S 01:29:08 23° SE 01:35:49 10° E visible
03 Nov - 03:23:25 10° SW 03:32:30 69° SSE 03:41:51 10° ENE visible
03 Nov - 05:28:05 10° W 05:37:22 71° N 05:47:00 10° ENE visible
03 Nov - 07:33:24 10° WNW 07:42:52 76° NNE 07:52:44 10° E daylight
03 Nov - 09:38:16 10° WNW 09:47:37 59° SW 09:57:17 10° SE daylight
03 Nov - 11:44:52 10° W 11:50:56 19° SW 11:57:08 10° SSW daylight
04 Nov - 00:57:55 10° S 01:04:07 20° SE 01:10:21 10° E visible
04 Nov - 02:58:21 10° SW 03:07:22 65° SE 03:16:38 10° ENE visible
04 Nov - 05:02:52 10° W 05:12:08 73° NNW 05:21:45 10° ENE visible
04 Nov - 07:08:13 10° WNW 07:17:38 74° NNE 07:27:27 10° E daylight
04 Nov - 09:13:05 10° WNW 09:22:28 63° SW 09:32:11 10° SE daylight
04 Nov - 11:19:20 10° W 11:25:54 21° SW 11:32:36 10° S daylight
05 Nov - 00:33:25 10° SSE 00:39:06 18° SE 00:44:48 10° E visible
05 Nov - 02:33:19 10° SW 02:42:16 60° SE 02:51:25 10° ENE visible
05 Nov - 04:37:40 10° W 04:46:55 74° NNW 04:56:30 10° ENE visible
05 Nov - 06:43:01 10° WNW 06:52:24 72° N 07:02:10 10° E daylight
05 Nov - 08:47:54 10° WNW 08:57:18 67° SW 09:07:04 10° SE daylight
05 Nov - 10:53:52 10° W 11:00:50 23° SW 11:07:59 10° S daylight
06 Nov - 00:09:02 10° SSE 00:14:06 16° SE 00:19:10 10° E visible
06 Nov - 02:08:18 10° SW 02:17:09 57° SE 02:26:12 10° ENE visible
06 Nov - 04:12:28 10° WSW 04:21:43 76° NNW 04:31:15 10° ENE visible
06 Nov - 06:17:50 10° WNW 06:27:11 71° N 06:36:53 10° E daylight
06 Nov - 08:22:44 10° WNW 08:32:09 70° SSW 08:41:56 10° SE daylight
06 Nov - 10:28:27 10° W 10:35:47 25° SW 10:43:18 10° S daylight
06 Nov - 23:44:48 10° SSE 23:49:05 14° ESE 23:53:24 10° E night (unlit)
07 Nov - 01:43:17 10° SW 01:52:03 53° SE 02:00:58 10° ENE visible
07 Nov - 03:47:16 10° WSW 03:56:31 78° NNW 04:06:02 10° ENE visible
07 Nov - 05:52:38 10° WNW 06:01:57 70° N 06:11:36 10° E visible
07 Nov - 07:57:33 10° WNW 08:06:59 74° SSW 08:16:46 10° SE daylight
07 Nov - 10:03:05 10° WNW 10:10:43 27° SW 10:18:33 10° S daylight
07 Nov - 23:20:50 10° SE 23:24:06 12° ESE 23:27:22 10° E night (unlit)
08 Nov - 01:18:19 10° SSW 01:26:57 49° SE 01:35:44 10° ENE visible
08 Nov - 03:22:05 10° WSW 03:31:18 81° NNW 03:40:48 10° ENE visible
08 Nov - 05:27:26 10° WNW 05:36:43 69° N 05:46:19 10° E visible
08 Nov - 07:32:23 10° WNW 07:41:49 78° SSW 07:51:36 10° SE daylight
08 Nov - 09:37:46 10° WNW 09:45:38 30° SW 09:53:45 10° S daylight
08 Nov - 22:57:35 10° SE 22:59:07 10° ESE 23:00:39 10° ESE night (unlit)
09 Nov - 00:53:22 10° SSW 01:01:53 45° SE 01:10:30 10° ENE visible
09 Nov - 02:56:54 10° WSW 03:06:07 83° NNW 03:15:35 10° ENE visible
09 Nov - 05:02:14 10° W 05:11:29 68° N 05:21:03 10° E visible
09 Nov - 07:07:14 10° WNW 07:16:39 82° SSW 07:26:25 10° ESE daylight
09 Nov - 09:12:27 10° WNW 09:20:34 33° SW 09:28:55 10° SSE daylight
